Weather History for Thomson, GA

Change the Weather History Date:

Friday, January 17, 2014

  Actual Average (KDBN) Record (KDBN)
Temperature  
Mean Temperature 45 °F -  
Max Temperature 57 °F 56 °F 82 °F (1950)
Min Temperature 33 °F 29 °F 8 °F (1977)
Degree Days  
Heating Degree Days 20    
Moisture  
Dew Point 27 °F    
Average Humidity 54    
Maximum Humidity 76    
Minimum Humidity 33    
Precipitation  
Precipitation 0.00 in - - ()
Sea Level Pressure  
Sea Level Pressure 30.04 in    
Wind  
Wind Speed 5 mph (SW)    
Max Wind Speed 15 mph    
Max Gust Speed 29 mph    
Visibility 10 miles    
Events      
Averages and records for this station are not official NWS values.
T = Trace of Precipitation, MM = Missing Value Source: NWS Daily Summary

Daily Weather History Graph

Daily Weather History Graph

Search for Another Location

Airport:

Trip Planner

Search our weather history database for the weather conditions in past years. The results will help you decide how hot, cold, wet, or windy it might be!

Date:

Astronomy

Jan. 17, 2014 Rise Set
Actual Time 7:33 AM EST 5:46 PM EST
Civil Twilight 7:06 AM EST 6:13 PM EST
Nautical Twilight 6:36 AM EST 6:44 PM EST
Astronomical Twilight 6:06 AM EST 7:14 PM EST
Moon 7:25 PM EST (1/17) 8:07 AM EST (1/17)
Length of Visible Light 11h 07m
Length of Day
10h 13m
Full, 98% of the Moon is Illuminated
Jan 17
Full
Jan 24
Last Quarter
Jan 30
New
Feb 6
First Quarter
Feb 14
Full

Hourly Weather History & Observations

Time (EST) Temp. Windchill Dew Point Humidity Pressure Visibility Wind Dir Wind Speed Gust Speed Precip Events Conditions
12:15 AM 33.3 °F - 21.9 °F 63% 30.11 in 10.0 mi Calm Calm - N/A   Clear
12:35 AM 34.3 °F 31.4 °F 21.6 °F 60% 30.11 in 10.0 mi SSW 3.5 mph - N/A   Clear
12:55 AM 34.5 °F - 21.4 °F 59% 30.11 in 10.0 mi Calm Calm - N/A   Clear
1:15 AM 33.6 °F 30.6 °F 22.1 °F 63% 30.10 in 10.0 mi South 3.5 mph - N/A   Clear
1:35 AM 34.2 °F 31.2 °F 21.7 °F 60% 30.09 in 10.0 mi SSW 3.5 mph - N/A   Clear
1:55 AM 34.2 °F - 21.7 °F 60% 30.08 in 10.0 mi Calm Calm - N/A   Clear
2:15 AM 33.8 °F 29.6 °F 21.9 °F 62% 30.08 in 10.0 mi SSW 4.6 mph - N/A   Clear
2:35 AM 34.2 °F 31.2 °F 22.1 °F 61% 30.08 in 10.0 mi SSW 3.5 mph - N/A   Clear
2:55 AM 34.7 °F 30.6 °F 22.3 °F 61% 30.08 in 10.0 mi SSW 4.6 mph - N/A   Clear
3:15 AM 35.1 °F 31.0 °F 22.3 °F 60% 30.08 in 10.0 mi SSW 4.6 mph - N/A   Clear
3:35 AM 35.2 °F 31.2 °F 22.3 °F 59% 30.07 in 10.0 mi SSW 4.6 mph - N/A   Clear
3:55 AM 35.6 °F 32.8 °F 22.5 °F 59% 30.06 in 10.0 mi SSW 3.5 mph - N/A   Clear
4:15 AM 35.6 °F 30.7 °F 22.5 °F 59% 30.05 in 10.0 mi South 5.8 mph - N/A   Clear
4:35 AM 35.6 °F 29.9 °F 22.8 °F 60% 30.05 in 10.0 mi South 6.9 mph - N/A   Clear
4:55 AM 35.1 °F 29.3 °F 23.0 °F 61% 30.05 in 10.0 mi SSW 6.9 mph - N/A   Clear
5:15 AM 35.1 °F 31.0 °F 23.7 °F 63% 30.05 in 10.0 mi SSW 4.6 mph - N/A   Clear
5:35 AM 34.7 °F 29.6 °F 24.4 °F 66% 30.06 in 10.0 mi South 5.8 mph - N/A   Clear
5:55 AM 34.7 °F - 25.0 °F 68% 30.06 in 10.0 mi Calm Calm - N/A   Clear
6:15 AM 34.9 °F - 25.5 °F 69% 30.06 in 10.0 mi Calm Calm - N/A   Clear
6:35 AM 34.5 °F - 25.9 °F 71% 30.07 in 10.0 mi Calm Calm - N/A   Clear
6:55 AM 34.3 °F 30.2 °F 26.2 °F 72% 30.07 in 10.0 mi SSW 4.6 mph - N/A   Clear
7:15 AM 33.8 °F 29.6 °F 26.4 °F 74% 30.06 in 10.0 mi SSW 4.6 mph - N/A   Clear
7:35 AM 33.4 °F 29.1 °F 26.4 °F 75% 30.06 in 10.0 mi SSW 4.6 mph - N/A   Clear
7:55 AM 33.8 °F 28.6 °F 27.0 °F 76% 30.07 in 10.0 mi South 5.8 mph - N/A   Clear
8:15 AM 34.9 °F 29.9 °F 27.9 °F 76% 30.07 in 10.0 mi SSW 5.8 mph - N/A   Clear
8:35 AM 36.3 °F 33.7 °F 28.9 °F 75% 30.08 in 10.0 mi SW 3.5 mph - N/A   Clear
8:55 AM 37.9 °F 32.7 °F 30.0 °F 73% 30.09 in 10.0 mi SSW 6.9 mph - N/A   Clear
9:15 AM 39.6 °F 34.7 °F 31.6 °F 73% 30.10 in 10.0 mi SW 6.9 mph - N/A   Clear
9:35 AM 40.8 °F 38.8 °F 32.2 °F 71% 30.10 in 10.0 mi SW 3.5 mph - N/A   Clear
9:55 AM 41.9 °F 37.5 °F 32.9 °F 70% 30.10 in 10.0 mi SW 6.9 mph - N/A   Clear
10:15 AM 43.3 °F 39.2 °F 34.0 °F 70% 30.10 in 10.0 mi WSW 6.9 mph - N/A   Clear
10:35 AM 44.4 °F 40.0 °F 34.3 °F 68% 30.09 in 10.0 mi WSW 8.1 mph - N/A   Clear
10:55 AM 46.4 °F 43.5 °F 34.7 °F 64% 30.09 in 10.0 mi SW 5.8 mph - N/A   Clear
11:15 AM 48.0 °F - 35.6 °F 62% 30.08 in 10.0 mi Calm Calm - N/A   Clear
11:35 AM 48.4 °F - 35.8 °F 62% 30.07 in 10.0 mi SSW 4.6 mph - N/A   Clear
11:55 AM 50.2 °F - 36.0 °F 58% 30.05 in 10.0 mi SSW 6.9 mph - N/A   Clear
12:15 PM 50.9 °F - 36.0 °F 57% 30.03 in 10.0 mi SSW 6.9 mph - N/A   Clear
12:35 PM 52.7 °F - 35.6 °F 52% 30.01 in 10.0 mi South 5.8 mph - N/A   Clear
12:55 PM 53.4 °F - 36.3 °F 52% 30.00 in 10.0 mi SSW 5.8 mph - N/A   Clear
1:15 PM 55.2 °F - 33.1 °F 43% 29.99 in 10.0 mi WSW 11.5 mph - N/A   Clear
1:35 PM 54.7 °F - 32.0 °F 42% 29.98 in 10.0 mi WSW 8.1 mph 17.3 mph N/A   Clear
1:55 PM 54.7 °F - 31.3 °F 41% 29.97 in 10.0 mi WSW 8.1 mph 18.4 mph N/A   Clear
2:15 PM 56.5 °F - 32.2 °F 40% 29.96 in 10.0 mi WSW 10.4 mph 17.3 mph N/A   Clear
2:35 PM 57.0 °F - 32.4 °F 39% 29.96 in 10.0 mi SSW 8.1 mph 20.7 mph N/A   Clear
2:55 PM 56.7 °F - 30.6 °F 37% 29.95 in 10.0 mi SSW 12.7 mph 23.0 mph N/A   Clear
3:15 PM 57.2 °F - 30.4 °F 36% 29.95 in 10.0 mi SW 8.1 mph 20.7 mph N/A   Scattered Clouds
3:35 PM 56.1 °F - 30.0 °F 37% 29.94 in 10.0 mi SW 11.5 mph 24.2 mph N/A   Clear
3:55 PM 57.2 °F - 31.1 °F 37% 29.94 in 10.0 mi SW 8.1 mph - N/A   Clear
4:15 PM 56.3 °F - 30.9 °F 38% 29.93 in 10.0 mi SW 5.8 mph - N/A   Clear
4:35 PM 56.5 °F - 31.6 °F 39% 29.93 in 10.0 mi SW 9.2 mph 16.1 mph N/A   Clear
4:55 PM 55.0 °F - 31.8 °F 41% 29.94 in 10.0 mi WSW 8.1 mph - N/A   Clear
5:15 PM 54.3 °F - 30.7 °F 41% 29.94 in 10.0 mi WSW 8.1 mph - N/A   Clear
5:35 PM 53.6 °F - 30.2 °F 41% 29.94 in 10.0 mi WSW 6.9 mph 16.1 mph N/A   Clear
5:55 PM 53.1 °F - 29.3 °F 40% 29.95 in 10.0 mi WSW 9.2 mph - N/A   Clear
6:15 PM 52.9 °F - 28.6 °F 39% 29.96 in 10.0 mi WSW 12.7 mph 17.3 mph N/A   Clear
6:35 PM 52.2 °F - 27.5 °F 39% 29.97 in 10.0 mi West 10.4 mph 19.6 mph N/A   Scattered Clouds
6:55 PM 51.1 °F - 24.3 °F 35% 29.97 in 10.0 mi West 9.2 mph 21.9 mph N/A   Scattered Clouds
7:15 PM 50.2 °F - 22.6 °F 34% 29.98 in 10.0 mi West 12.7 mph 18.4 mph N/A   Scattered Clouds
7:35 PM 49.8 °F - 21.6 °F 33% 29.99 in 10.0 mi West 15.0 mph 24.2 mph N/A   Scattered Clouds
7:55 PM 48.7 °F - 21.2 °F 34% 30.00 in 10.0 mi West 12.7 mph 25.3 mph N/A   Clear
8:15 PM 48.0 °F - 21.0 °F 34% 30.02 in 10.0 mi West 12.7 mph 28.8 mph N/A   Clear
8:35 PM 46.9 °F - 21.0 °F 36% 30.03 in 10.0 mi West 11.5 mph 16.1 mph N/A   Clear
8:55 PM 45.5 °F 42.5 °F 21.0 °F 38% 30.03 in 10.0 mi West 5.8 mph - N/A   Clear
9:15 PM 45.0 °F 41.2 °F 21.0 °F 39% 30.04 in 10.0 mi West 6.9 mph 16.1 mph N/A   Clear
9:35 PM 43.2 °F 39.0 °F 20.8 °F 41% 30.05 in 10.0 mi West 6.9 mph - N/A   Clear
9:55 PM 42.8 °F 36.6 °F 22.5 °F 45% 30.06 in 10.0 mi WNW 11.5 mph 16.1 mph N/A   Clear
10:15 PM 41.4 °F 36.2 °F 23.4 °F 49% 30.06 in 10.0 mi West 8.1 mph - N/A   Clear
10:35 PM 40.8 °F 36.2 °F 23.5 °F 50% 30.07 in 10.0 mi West 6.9 mph - N/A   Clear
10:55 PM 39.9 °F 33.4 °F 23.5 °F 52% 30.07 in 10.0 mi WNW 10.4 mph - N/A   Clear
11:15 PM 39.6 °F 33.5 °F 23.7 °F 53% 30.07 in 10.0 mi West 9.2 mph 17.3 mph N/A   Clear
11:35 PM 38.8 °F 34.6 °F 23.5 °F 54% 30.07 in 10.0 mi West 5.8 mph - N/A   Clear
11:55 PM 37.9 °F 31.5 °F 23.7 °F 57% 30.07 in 10.0 mi West 9.2 mph - N/A   Clear